Regional Weather Roundup
Issued by NWS

Home | Current Version | Previous Version | Text Only | Print | Product List | Glossary Off
Versions: 1 2 3 4 5 6 7 8 9 10 11 12 13 14 15 16 17 18 19 20 21 22 23 24 25 26 27 28 29 30 31 32 33 34 35 36 37 38 39 40 41 42 43 44 45 46 47 48 49 50

073
ASUS43 KIND 120659
RWRIN

WEATHER ROUNDUP FOR INDIANA
NATIONAL WEATHER SERVICE INDIANAPOLIS IN
200 AM EST FRI FEB 12 2016

NOTE: "FAIR" INDICATES FEW OR NO CLOUDS BELOW 12,000 FEET WITH NO
SIGNIFICANT WEATHER AND/OR OBSTRUCTIONS TO VISIBILITY.

* - STATION DOES NOT REPORT WEATHER SUCH AS PRECIPITATION OR FOG.

+ - STATION NOT QUALITY CONTROLLED BY THE NATIONAL WEATHER SERVICE.
    USE DATA WITH CAUTION...ESPECIALLY DEWPOINT AND RELATIVE
    HUMIDITY OBSERVATIONS.

INZ001>003-010>013-019-020-120800-
NORTHWEST INDIANA

CITY           SKY/WX    TMP DP  RH WIND       PRES   REMARKS
GARY /AIRPORT/ CLOUDY    17  10  77 CALM      30.23F
MONTICELLO +   CLOUDY    16   8  68 CALM      30.24F
RENSSELAER +   CLOUDY    21  10  63 SW3       30.24F

$$

LMZ046-743>745-120800-
SOUTHERN LAKE MICHIGAN

STATION/POSITION TIME  TEMP    WIND        PRES    WAVE
                       AIR SEA DIR/SP/G            HT
                 (UTC) (F)     (DEG/KT/KT) (MB)    (FT)
BURNS HARBOR     0600   19     220/  7/  9 1024.7F
MICHIGAN CITY    0600   17     190/  9/ 10   N/A

$$

INZ004-005-014>016-021>024-120800-
NORTH CENTRAL INDIANA

CITY           SKY/WX    TMP DP  RH WIND       PRES   REMARKS
GOSHEN         CLOUDY     6   1  80 CALM      30.21F
SOUTH BEND     CLOUDY     9   4  80 CALM      30.21F

$$

INZ006>009-017-018-025>027-120800-
NORTHEAST INDIANA

CITY           SKY/WX    TMP DP  RH WIND       PRES   REMARKS
ANGOLA *+      CLEAR      3   0  85 CALM      30.18F
FORT WAYNE     PTCLDY    11   6  81 SW6       30.23F WCI   1

$$

INZ028-029-035-036-043>045-051>053-120800-
WEST CENTRAL INDIANA

CITY           SKY/WX    TMP DP  RH WIND       PRES   REMARKS
GREENCASTLE +  CLOUDY    21  12  68 CALM      30.24F
LAFAYETTE      CLOUDY    17  12  80 CALM      30.24F
TERRE HAUTE    CLOUDY    20  14  77 CALM      30.25F

$$

INZ030>032-037>040-046>048-054>057-064-065-120800-
CENTRAL INDIANA

CITY           SKY/WX    TMP DP  RH WIND       PRES   REMARKS
FRANKFORT +    CLOUDY    19   5  53 CALM      30.24F
GREENWOOD *+   CLOUDY    19  14  79 CALM      30.24F
INDIANAPOLIS   CLOUDY    21  11  65 CALM      30.22F
-EAGLE CREEK   CLOUDY    21  12  68 CALM      30.23F
KOKOMO *+      PTCLDY    12   7  79 CALM      30.23F
MT COMFORT *+  PTCLDY    18  10  73 CALM      30.24F
SHELBYVILLE    CLOUDY    16   9  74 CALM      30.23F

$$

INZ033-034-041-042-049-050-058-059-120800-
EAST CENTRAL INDIANA

CITY           SKY/WX    TMP DP  RH WIND       PRES   REMARKS
MUNCIE         CLOUDY    13   7  77 CALM      30.23F

$$

INZ060-061-067>069-081>083-085>088-120800-
SOUTHWEST INDIANA

CITY           SKY/WX    TMP DP  RH WIND       PRES   REMARKS
EVANSVILLE     CLOUDY    29  14  53 NE3       30.25S
HUNTINGBURG *+ CLOUDY    27  12  54 NE6       30.24S WCI  20

$$

INZ062-063-066-070>080-084-089>092-120800-
SOUTH CENTRAL AND SOUTHEAST INDIANA

CITY           SKY/WX    TMP DP  RH WIND       PRES   REMARKS
BLOOMINGTON    CLOUDY    21  11  65 E3        30.23F
MADISON *+     CLOUDY    21  10  63 NE5       30.25F WCI  15
SEYMOUR +      MOCLDY    25  10  54 CALM      30.25F

$$





USA.gov is the U.S. government's official web portal to all federal, state and local government web resources and services.